星链-3104 (STARLINK-3104 )

导读 | 豆包AI

STARLINK-3104是美国太空探索技术公司SpaceX星链星座的一员,于2021年9月14日发射升空,主要为全球提供低延迟、高速率的宽带互联网服务。它运行在近地轨道,依托星链大规模组网,可覆盖偏远地区,补足传统网络覆盖短板,目前已成为星链全球互联网服务架构中的在轨卫星节点。

基本信息
目录编号:
49150
目录名称:
STARLINK-3104
国际标识:
2021-082W
轨道中心:
EARTH
卫星名称:
星链-3104
卫星全名:
星链-3104 (STARLINK-3104 )
卫星状态:
已陨落 最后检测时间 2025-04-19
发射日期:
2021-09-14 UTC
国别 :
美国 (US)
星等 :
--
轨道信息
数据来源 国际轨道数据
星历时间: 2025-04-19T13:29:46+0800
轨道信息已过期329天
半长轴: 6523.478km
偏心率: 0.0011086
轨道倾角: 69.979°
近地点辐角 248.212°
升交点赤经 18.473°
平近点角 214.354°
近地点: 138.111km
远地点: 152.575km
周期: 87.393分钟
每日圈数: 16.477221
详细信息
固有亮度:
5
最大亮度:
2.5
卫星平台:
Starlink v1.5
覆盖范围:
全球
运营商:
太空探索技术公司
运营商所在国:
美国
制造商(研发单位):
太空探索技术公司
制造商所在国:
美国
使用方式:
暂无
卫星简介
星链(Starlink)计划是由太空探索技术公司(SpaceX)提出的一个巨型低轨卫星互联网星座项目,计划在2019年至2024年间在太空搭建由约1.2万颗卫星组成的“星链”网络,其中1584颗将部署在地球上空550千米处的近地轨道,并从2020年开始工作。该卫星仍在工作。